Regional Weather Roundup
Issued by NWS

Home | Current Version | Previous Version | Text Only | Print | Product List | Glossary On
Versions: 1 2 3 4 5 6 7 8 9 10 11 12 13 14 15 16 17 18 19 20 21 22 23 24 25 26 27 28 29 30 31 32 33 34 35 36 37 38 39 40 41 42 43 44 45 46 47 48 49 50
201
ASUS43 KIND 202209
RWRIN

WEATHER ROUNDUP FOR INDIANA
NATIONAL WEATHER SERVICE INDIANAPOLIS IN
600 PM EDT FRI APR 20 2018

NOTE: "FAIR" INDICATES FEW OR NO CLOUDS BELOW 12,000 FEET WITH NO
SIGNIFICANT WEATHER AND/OR OBSTRUCTIONS TO VISIBILITY.

* - STATION DOES NOT REPORT WEATHER SUCH AS PRECIPITATION OR FOG.

+ - STATION NOT QUALITY CONTROLLED BY THE NATIONAL WEATHER SERVICE.
    USE DATA WITH CAUTION...ESPECIALLY DEWPOINT AND RELATIVE
    HUMIDITY OBSERVATIONS.

INZ001>003-010>013-019-020-202300-
NORTHWEST INDIANA

CITY           SKY/WX    TMP DP  RH WIND       PRES   REMARKS
GARY /AIRPORT/ MOSUNNY   54   7  15 NE10      30.48F
KNOX *+        FAIR      59  18  20 NW9G16    30.44S
LA PORTE +     FAIR      54  17  22 NW9       30.46S
MICHIGAN CITY+ FAIR      52  19  28 N7        30.48S
MONTICELLO +   FAIR      59  14  17 CALM      30.43S
RENSSELAER +   FAIR      61 -20   3 CALM      30.44S
VALPARAISO     FAIR      60  12  15 N9        30.46S

$$

LMZ046-743>745-202300-
SOUTHERN LAKE MICHIGAN

STATION/POSITION TIME  TEMP    WIND        PRES    WAVE
                       AIR SEA DIR/SP/G            HT
                 (UTC) (F)     (DEG/KT/KT) (MB)    (FT)
BURNS HARBOR     2140   45      70/  6/  7 1032.5F
MICHIGAN CITY    2140   41      40/  6/  6   N/A

$$

INZ004-005-014>016-021>024-202300-
NORTH CENTRAL INDIANA

CITY           SKY/WX    TMP DP  RH WIND       PRES   REMARKS
ELKHART        FAIR      61  18  18 N8        30.43S
GOSHEN         FAIR      60  24  25 SE7       30.42F
LOGANSPORT +   FAIR      59  23  25 N9G16     30.44S
PERU/GRISSOM   MOSUNNY   57  21  24 N3        30.43F
ROCHESTER +    FAIR      61  18  18 NW6       30.44S
SOUTH BEND     FAIR      56  19  23 N12       30.46S
WARSAW +       FAIR      55  23  28 SE3       30.43S

$$

INZ006>009-017-018-025>027-202300-
NORTHEAST INDIANA

CITY           SKY/WX    TMP DP  RH WIND       PRES   REMARKS
ANGOLA *+      FAIR      57  19  23 N6        30.42S
AUBURN +       FAIR      57  21  24 N7        30.43F
FORT WAYNE     FAIR      60  22  23 N8        30.43F
HUNTINGTON +   FAIR      58  19  22 N3        30.42S
KENDALLVILLE +   N/A     57   6  12 NE3       30.43

$$

INZ028-029-035-036-043>045-051>053-202300-
WEST CENTRAL INDIANA

CITY           SKY/WX    TMP DP  RH WIND       PRES   REMARKS
CRAWFORDSVL +  FAIR      57  24  28 NE6       30.43S
GREENCASTLE +  FAIR      59  23  25 CALM      30.42S
LAFAYETTE      FAIR      59  19  21 NE8       30.42F
TERRE HAUTE    FAIR      61  22  22 E9        30.41F

$$

INZ030>032-037>040-046>048-054>057-064-065-202300-
CENTRAL INDIANA

CITY           SKY/WX    TMP DP  RH WIND       PRES   REMARKS
COLUMBUS       SUNNY     63 N/A N/A NE9       30.42S
FISHERS *+     FAIR      59  32  36 E7        30.42S
FRANKFORT +    FAIR      62  19  19 E5        30.45R
GREENWOOD *+   FAIR      58  22  25 NE5       30.42S
INDIANAPOLIS   FAIR      59  19  21 NE5       30.42S
-EAGLE CREEK   FAIR      59  24  26 E7        30.41S
KOKOMO +       FAIR      60  23  24 CALM      30.44R
MARION +       FAIR      58  22  25 CALM      30.43S
MT COMFORT *+  FAIR      57  28  33 NE5       30.43S
SHELBYVILLE    FAIR      61  21  21 VRB5      30.41S
ZIONSVILLE +   FAIR      57  24  27 N5        30.43S

$$

INZ033-034-041-042-049-050-058-059-202300-
EAST CENTRAL INDIANA

CITY           SKY/WX    TMP DP  RH WIND       PRES   REMARKS
MUNCIE         FAIR      60  22  23 N9        30.42F
RICHMOND +     FAIR      54  23  30 NE5       30.42F

$$

INZ060-061-067>069-081>083-085>088-202300-
SOUTHWEST INDIANA

CITY           SKY/WX    TMP DP  RH WIND       PRES   REMARKS
EVANSVILLE     FAIR      63  22  20 E6        30.38F
HUNTINGBURG +  FAIR      63  26  24 N8        30.38S
WASHINGTON +   FAIR      64  16  15 E3        30.38F

$$

INZ062-063-066-070>080-084-089>092-202300-
SOUTH CENTRAL AND SOUTHEAST INDIANA

CITY           SKY/WX    TMP DP  RH WIND       PRES   REMARKS
BATESVILLE +   SUNNY     57  23  26 MISG      30.40S
BEDFORD +      FAIR      63  14  15 NE7       30.39
BLOOMINGTON    FAIR      62  21  20 N9G16     30.39F
FRENCH LICK *+ FAIR      61  10  13 NE8       30.39S
MADISON *+     FAIR      61  14  16 NE5       30.42S
SEYMOUR +      FAIR      63  30  29 NE7       30.40S

$$





USA.gov is the U.S. government's official web portal to all federal, state and local government web resources and services.